FW6665 Weather Reports


time (UTC)temp
F
wind
direction
speed
knots
gust
knots
rain 1hr
in
rain 24hr
in
rain mn
in
humidity
%
barometer
mb
20260903193204 71 202 1.7 6.1 0.00 0.00 0.00 75 1013.6
20260903192705 72 90 1.7 9.6 0.00 0.00 0.00 75 1013.6
20260903192204 72 234 2.6 9.6 0.00 0.00 0.00 75 1013.6
20260903191704 72 199 1.7 6.1 0.00 0.00 0.00 75 1013.6
20260903190704 72 195 1.7 7.8 0.00 0.00 0.00 75 1013.6
20260903190209 73 199 1.7 7.8 0.00 0.00 0.00 74 1013.5
20260903185707 73 230 0.9 5.2 0.00 0.00 0.00 74 1013.4
20260903185204 73 157 1.7 4.3 0.00 0.00 0.00 74 1013.4
20260903184704 73 165 1.7 6.1 0.00 0.00 0.00 73 1013.4
20260903184204 74 193 1.7 8.7 0.00 0.00 0.00 73 1013.3
20260903183704 74 172 0.9 8.7 0.00 0.00 0.00 72 1013.3
20260903183204 74 137 1.7 8.7 0.00 0.00 0.00 72 1013.3
20260903181704 74 234 2.6 6.1 0.00 0.00 0.00 71 1013.2
20260903181204 75 183 1.7 6.1 0.00 0.00 0.00 71 1013.2
20260903180709 75 55 2.6 9.6 0.00 0.00 0.00 70 1013.2
20260903180204 75 254 1.7 9.6 0.00 0.00 0.00 70 1013.3
20260903175205 76 231 1.7 7.8 0.00 0.00 0.00 69 1013.3
20260903174204 76 209 1.7 9.6 0.00 0.00 0.00 69 1013.4
20260903173704 76 138 1.7 9.6 0.00 0.00 0.00 69 1013.4
20260903173204 76 210 2.6 7.8 0.00 0.00 0.00 69 1013.3
20260903172730 76 152 2.6 6.1 0.00 0.00 0.00 68 1013.2
20260903172204 76 188 1.7 9.6 0.00 0.00 0.00 69 1013.2
20260903171704 76 161 1.7 9.6 0.00 0.00 0.00 69 1013.3
20260903171240 76 248 1.7 7.8 0.00 0.00 0.00 68 1013.5
20260903170204 76 264 3.5 7.8 0.00 0.00 0.00 69 1013.4
20260903165704 76 179 1.7 7.8 0.00 0.00 0.00 69 1013.4
20260903165204 76 203 1.7 7.8 0.00 0.00 0.00 68 1013.3
20260903164704 76 240 1.7 11.3 0.00 0.00 0.00 67 1013.4
20260903164204 77 176 2.6 11.3 0.00 0.00 0.00 67 1013.5
20260903163203 77 148 2.6 8.7 0.00 0.00 0.00 67 1013.5
20260903162704 77 241 2.6 8.7 0.00 0.00 0.00 66 1013.5
20260903162204 77 224 1.7 8.7 0.00 0.00 0.00 66 1013.5
20260903161704 78 231 1.7 8.7 0.00 0.00 0.00 66 1013.5
20260903161204 77 237 0.9 8.7 0.00 0.00 0.00 68 1013.6
20260903160704 77 161 1.7 8.7 0.00 0.00 0.00 67 1013.5
20260903155704 78 114 0.9 7.8 0.00 0.00 0.00 67 1013.6
20260903155205 78 80 1.7 7.8 0.00 0.00 0.00 67 1013.7
20260903154204 78 188 3.5 5.2 0.00 0.00 0.00 66 1013.6
20260903153706 78 159 1.7 6.1 0.00 0.00 0.00 65 1013.8
20260903153204 78 173 1.7 6.1 0.00 0.00 0.00 65 1013.8
20260903152704 78 164 1.7 7.8 0.00 0.00 0.00 65 1013.8
20260903152204 78 149 1.7 7.8 0.00 0.00 0.00 64 1014.0
20260903151704 78 251 0.9 7.8 0.00 0.00 0.00 63 1014.0
20260903151204 78 168 1.7 12.2 0.00 0.00 0.00 63 1013.9
20260903150704 78 266 3.5 12.2 0.00 0.00 0.00 61 1013.9
20260903145704 79 234 2.6 6.1 0.00 0.00 0.00 60 1014.1
20260903145205 79 207 1.7 13.9 0.00 0.00 0.00 60 1014.0
20260903144704 79 154 1.7 13.9 0.00 0.00 0.00 59 1013.8
20260903143704 79 250 1.7 13.0 0.00 0.00 0.00 56 1014.0
20260903143206 79 254 3.5 13.9 0.00 0.00 0.00 57 1014.1
20260903142704 79 199 3.5 13.9 0.00 0.00 0.00 57 1014.1
20260903142204 79 178 2.6 13.9 0.00 0.00 0.00 56 1014.0
20260903141705 79 262 5.2 13.9 0.00 0.00 0.00 55 1014.0
20260903141205 79 175 4.3 11.3 0.00 0.00 0.00 56 1014.0
20260903140704 79 258 5.2 11.3 0.00 0.00 0.00 56 1014.1
20260903135204 80 219 2.6 16.5 0.00 0.00 0.00 56 1014.2
20260903134705 79 243 2.6 16.5 0.00 0.00 0.00 56 1014.2
20260903134204 79 220 5.2 13.9 0.00 0.00 0.00 58 1014.4
20260903133711 78 193 3.5 13.9 0.00 0.00 0.00 59 1014.4
20260903133204 78 247 3.5 13.9 0.00 0.00 0.00 60 1014.5
20260903132704 78 231 3.5 13.9 0.00 0.00 0.00 60 1014.6
20260903132204 78 240 3.5 11.3 0.00 0.00 0.00 61 1014.5
20260903131205 78 264 2.6 11.3 0.00 0.00 0.00 61 1014.4
20260903130704 78 235 3.5 12.2 0.00 0.00 0.00 60 1014.6
20260903130209 77 254 3.5 12.2 0.00 0.00 0.00 61 1014.7
20260903125704 77 216 2.6 9.6 0.00 0.00 0.00 62 1014.7
20260903125204 76 265 1.7 9.6 0.00 0.00 0.00 63 1014.8
20260903124705 76 293 3.5 7.8 0.00 0.00 0.00 63 1014.8
20260903124205 76 250 3.5 9.6 0.00 0.00 0.00 63 1014.8
20260903123703 76 233 3.5 9.6 0.00 0.00 0.00 63 1014.9
20260903123203 76 230 2.6 10.4 0.00 0.00 0.00 63 1014.9
20260903122704 75 237 3.5 11.3 0.00 0.00 0.00 64 1015.0
20260903122204 75 230 3.5 11.3 0.00 0.00 0.00 64 1014.9
20260903121704 75 230 3.5 13.0 0.00 0.00 0.00 65 1015.0
20260903121204 75 244 5.2 13.0 0.00 0.00 0.00 65 1015.0
20260903120704 75 254 5.2 13.0 0.00 0.00 0.00 65 1014.9
20260903120205 75 254 4.3 8.7 0.00 0.00 0.00 65 1014.8
20260903115204 75 251 2.6 10.4 0.00 0.00 0.00 67 1014.8
20260903114204 75 269 3.5 8.7 0.00 0.00 0.00 67 1015.0
20260903113704 75 200 1.7 8.7 0.00 0.00 0.00 68 1015.0
20260903113204 74 197 1.7 10.4 0.00 0.00 0.00 68 1015.1
20260903112704 74 252 1.7 10.4 0.00 0.00 0.00 68 1015.0
20260903111704 74 228 3.5 7.8 0.00 0.00 0.00 68 1015.0
20260903111204 74 180 3.5 10.4 0.00 0.00 0.00 68 1015.0
20260903110704 74 281 1.7 10.4 0.00 0.00 0.00 68 1015.0
20260903110204 74 220 2.6 10.4 0.00 0.00 0.00 69 1015.1
20260903105205 73 247 3.5 12.2 0.00 0.01 0.00 69 1015.3
20260903104704 73 190 2.6 14.8 0.00 0.01 0.00 69 1015.2
20260903104204 73 265 3.5 14.8 0.00 0.01 0.00 69 1015.2
20260903103204 73 248 7.8 12.2 0.00 0.01 0.00 68 1015.2
20260903102705 73 166 1.7 12.2 0.00 0.01 0.00 69 1015.3
20260903102204 74 195 1.7 7.8 0.00 0.01 0.00 69 1015.4
20260903101703 73 244 1.7 7.8 0.00 0.01 0.00 70 1015.4
20260903101204 73 157 1.7 9.6 0.00 0.01 0.00 72 1015.3
20260903100726 72 247 2.6 9.6 0.00 0.01 0.00 72 1015.4
20260903100204 71 226 2.6 11.3 0.00 0.01 0.00 73 1015.4
20260903095704 71 168 2.6 11.3 0.00 0.01 0.00 73 1015.3
20260903095204 71 223 1.7 13.0 0.00 0.01 0.00 74 1015.6
20260903094704 71 250 3.5 13.0 0.00 0.01 0.00 73 1015.5
20260903094204 71 250 5.2 13.9 0.00 0.01 0.00 73 1015.4
20260903093204 71 234 4.3 13.9 0.00 0.01 0.00 74 1015.6
20260903092704 71 240 3.5 11.3 0.00 0.01 0.00 74 1015.6
20260903092204 70 237 4.3 11.3 0.00 0.01 0.00 75 1015.5
20260903091705 70 302 5.2 11.3 0.00 0.01 0.00 75 1015.6
20260903091204 70 223 3.5 12.2 0.00 0.01 0.00 75 1015.6
20260903090231 70 272 4.3 11.3 0.00 0.01 0.00 75 1015.4
20260903085205 70 244 2.6 13.0 0.00 0.01 0.00 76 1015.4
20260903084704 70 199 2.6 13.0 0.00 0.01 0.00 76 1015.3
20260903083704 70 245 6.1 9.6 0.00 0.01 0.00 77 1015.2
20260903083204 70 255 1.7 9.6 0.00 0.01 0.00 77 1015.1
20260903082704 69 254 3.5 7.8 0.00 0.01 0.00 77 1014.8
20260903082204 69 224 2.6 7.8 0.00 0.01 0.00 77 1014.8
20260903081704 69 259 2.6 7.8 0.00 0.01 0.00 77 1014.6
20260903081205 69 197 1.7 7.8 0.00 0.01 0.00 77 1014.6
20260903080205 69 258 2.6 6.1 0.00 0.01 0.00 77 1014.4
20260903075704 69 266 2.6 10.4 0.00 0.01 0.00 77 1014.4
20260903075205 69 131 2.6 10.4 0.00 0.01 0.00 77 1014.2
20260903074705 68 240 0.9 10.4 0.00 0.01 0.00 77 1014.2
20260903074204 68 190 1.7 7.8 0.00 0.01 0.00 77 1014.0
20260903073731 68 241 2.6 7.8 0.00 0.01 0.00 77 1014.1
20260903073204 68 272 1.7 7.8 0.00 0.01 0.00 77 1013.9
20260903072204 68 226 1.7 9.6 0.00 0.01 0.00 77 1013.8
20260903071204 68 178 1.7 9.6 0.00 0.01 0.00 77 1014.0
20260903070704 68 200 1.7 7.8 0.00 0.01 0.00 77 1014.1
20260903070209 67 224 0.9 7.8 0.00 0.01 0.00 77 1013.9
20260903065705 67 217 1.7 7.8 0.00 0.01 0.00 77 1014.0
20260903065205 67 178 1.7 8.7 0.00 0.01 0.00 77 1014.0
20260903064705 67 223 2.6 9.6 0.00 0.01 0.00 77 1014.2
20260903064204 67 241 3.5 9.6 0.00 0.01 0.00 77 1014.2
20260903063704 67 250 3.5 9.6 0.00 0.01 0.00 77 1014.3
20260903063204 67 240 2.6 7.8 0.00 0.01 0.00 77 1014.1
20260903062704 67 176 2.6 7.8 0.00 0.01 0.00 77 1014.0
20260903062204 67 248 1.7 7.8 0.00 0.01 0.00 77 1014.1
20260903061705 67 120 0.9 8.7 0.00 0.01 0.00 77 1014.0
20260903061204 67 212 0.9 8.7 0.00 0.01 0.00 76 1014.1
20260903060704 67 166 1.7 8.7 0.00 0.01 0.00 76 1014.0
20260903060204 67 110 1.7 8.7 0.00 0.01 0.00 76 1014.0
20260903055704 67 228 2.6 8.7 0.00 0.01 0.00 76 1014.0
20260903055205 67 175 1.7 5.2 0.00 0.01 0.00 76 1013.9
20260903054703 67 193 1.7 5.2 0.00 0.01 0.00 76 1013.9
20260903054204 67 204 0.9 5.2 0.00 0.01 0.00 76 1013.8
20260903053704 67 238 0.9 6.1 0.00 0.01 0.00 76 1013.7
20260903053204 67 207 1.7 6.1 0.00 0.01 0.00 76 1013.8
20260903052204 67 169 2.6 6.1 0.00 0.01 0.00 76 1013.6
20260903051704 67 203 1.7 6.1 0.00 0.01 0.00 76 1013.7
20260903051204 67 196 1.7 6.1 0.00 0.01 0.00 76 1013.6
20260903050704 67 196 3.5 6.1 0.00 0.01 0.00 76 1013.8
20260903050203 67 197 1.7 8.7 0.00 0.01 0.00 76 1013.8
20260903045714 67 102 1.7 8.7 0.00 0.01 0.00 76 1013.6
20260903045204 66 221 2.6 8.7 0.00 0.01 0.00 76 1013.7
20260903044704 66 178 1.7 6.1 0.00 0.01 0.00 76 1013.5
20260903044204 66 244 1.7 6.1 0.00 0.01 0.00 75 1013.4
20260903043704 66 240 0.9 6.1 0.00 0.01 0.00 75 1013.6
20260903043204 66 190 0.9 5.2 0.00 0.01 0.00 75 1013.5
20260903042704 66 199 1.7 5.2 0.00 0.01 0.00 75 1013.6
20260903042204 66 217 0.9 5.2 0.00 0.01 0.00 75 1013.6
20260903041704 66 190 1.7 5.2 0.00 0.01 0.00 75 1013.6
20260903040729 67 237 1.7 6.1 0.00 0.01 0.00 75 1013.7
20260903040204 67 204 0.9 4.3 0.00 0.01 0.00 75 1013.8
20260903035704 67 231 1.7 5.2 0.00 0.01 0.00 75 1013.7
20260903035204 67 196 1.7 7.8 0.00 0.01 0.00 75 1013.7
20260903034704 67 247 1.7 7.8 0.00 0.01 0.00 75 1013.6
20260903034205 67 180 1.7 7.8 0.00 0.01 0.00 75 1013.4
20260903033704 67 254 2.6 6.1 0.00 0.01 0.00 75 1013.5
20260903033204 66 157 1.7 8.7 0.00 0.01 0.00 75 1013.5
20260903032205 66 179 1.7 8.7 0.00 0.01 0.00 75 1013.7
20260903031204 66 199 1.7 6.1 0.00 0.01 0.00 75 1013.6
20260903030704 66 197 2.6 5.2 0.00 0.01 0.00 75 1013.6
20260903023704 66 220 1.7 6.1 0.00 0.01 0.00 76 1013.6
20260903023214 66 189 0.9 6.1 0.00 0.01 0.00 76 1013.7
20260903022204 66 178 1.7 5.2 0.00 0.01 0.00 75 1013.7
20260903021704 66 164 0.9 4.3 0.00 0.01 0.00 75 1013.7
20260903015705 66 162 0.0 7.8 0.00 0.01 0.00 75 1013.7
20260903015204 66 180 1.7 7.8 0.00 0.01 0.00 75 1013.7
20260903014704 66 196 0.0 7.8 0.00 0.01 0.00 75 1013.8
20260903014204 66 189 1.7 6.1 0.00 0.01 0.00 75 1013.8
20260903013704 66 164 1.7 6.1 0.00 0.01 0.00 75 1013.7
20260903013204 66 197 1.7 6.1 0.00 0.01 0.00 75 1013.9
20260903012205 66 185 1.7 4.3 0.00 0.01 0.00 75 1013.8
20260903011705 66 196 1.7 8.7 0.00 0.01 0.00 75 1013.8
20260903011205 66 183 0.9 8.7 0.00 0.01 0.00 75 1013.8
20260903010703 66 203 1.7 4.3 0.00 0.01 0.00 75 1013.7
20260903005704 66 162 1.7 5.2 0.00 0.01 0.00 75 1014.1
20260903005204 66 190 1.7 5.2 0.00 0.01 0.00 75 1014.2
20260903004704 66 188 1.7 8.7 0.00 0.01 0.00 75 1014.3
20260903004204 66 203 0.9 8.7 0.00 0.01 0.00 75 1014.2
20260903002704 66 179 1.7 8.7 0.00 0.01 0.00 75 1014.1
20260903001704 66 185 1.7 8.7 0.00 0.01 0.00 75 1014.3
20260903001204 66 212 2.6 5.2 0.00 0.01 0.00 75 1014.2
20260903000704 66 203 0.9 7.8 0.00 0.01 0.00 75 1014.3
20260903000204 66 272 1.7 7.8 0.00 0.01 0.00 75 1014.3
20260902235704 66 195 1.7 7.8 0.00 0.01 0.00 75 1014.2
20260902235207 66 228 1.7 5.2 0.00 0.01 0.00 75 1014.1
20260902234704 66 178 2.6 5.2 0.00 0.01 0.00 75 1014.3
20260902234203 66 258 0.9 5.2 0.00 0.01 0.00 75 1014.3
20260902233704 66 199 1.7 5.2 0.00 0.01 0.00 75 1014.3
20260902233204 66 255 1.7 4.3 0.00 0.01 0.00 75 1014.3
20260902232703 66 228 1.7 4.3 0.00 0.01 0.00 75 1014.3
20260902232204 66 161 1.7 6.1 0.00 0.01 0.00 75 1014.4
20260902231204 66 175 1.7 6.1 0.00 0.01 0.00 75 1014.4
20260902230730 67 180 1.7 6.1 0.00 0.01 0.00 75 1014.6
20260902230204 67 124 1.7 6.1 0.00 0.01 0.01 75 1014.6
20260902225704 67 243 1.7 6.1 0.00 0.01 0.01 75 1014.6
20260902225204 67 197 1.7 5.2 0.00 0.01 0.01 75 1014.6
20260902224704 67 234 2.6 6.1 0.00 0.01 0.01 75 1014.7
20260902224204 67 235 1.7 11.3 0.00 0.01 0.01 75 1014.7
20260902223705 67 193 1.7 11.3 0.00 0.01 0.01 75 1014.5
20260902223203 67 255 2.6 7.8 0.00 0.01 0.01 75 1014.5
20260902222704 67 217 1.7 7.8 0.00 0.01 0.01 75 1014.3
20260902222205 67 185 0.9 7.8 0.00 0.01 0.01 75 1014.2
20260902220704 67 168 2.6 11.3 0.00 0.01 0.01 75 1014.2
20260902215204 67 189 0.9 9.6 0.00 0.01 0.01 75 1014.0
20260902214705 67 217 1.7 9.6 0.00 0.01 0.01 75 1014.3
20260902214204 67 207 1.7 8.7 0.00 0.01 0.01 75 1014.2
20260902213704 67 216 1.7 8.7 0.00 0.01 0.01 75 1014.3
20260902213204 67 203 2.6 6.1 0.00 0.01 0.01 75 1014.2
20260902212704 67 197 1.7 7.8 0.00 0.01 0.01 75 1014.3
20260902212205 67 195 1.7 7.8 0.00 0.01 0.01 75 1014.3
20260902211704 67 264 1.7 6.1 0.00 0.01 0.01 75 1014.5
20260902211204 67 240 2.6 6.1 0.00 0.01 0.01 74 1014.5
20260902210704 67 219 1.7 6.1 0.00 0.01 0.01 74 1014.4
20260902210204 67 183 2.6 6.1 0.00 0.01 0.01 74 1014.5
20260902205704 67 228 2.6 8.7 0.00 0.01 0.01 74 1014.4
20260902205204 67 175 1.7 8.7 0.00 0.01 0.01 73 1014.3
20260902204724 67 241 1.7 4.3 0.00 0.01 0.01 73 1014.3
20260902204204 67 261 1.7 3.5 0.00 0.01 0.01 72 1014.2
20260902203707 67 213 0.9 5.2 0.00 0.01 0.01 72 1014.2
20260902203204 67 186 0.0 5.2 0.00 0.01 0.01 71 1014.2
20260902202704 66 176 1.7 3.5 0.00 0.01 0.01 71 1014.3
20260902202209 67 107 0.9 3.5 0.00 0.01 0.01 71 1014.4
20260902201704 66 173 1.7 5.2 0.00 0.01 0.01 71 1014.4
20260902201204 66 189 0.9 5.2 0.00 0.01 0.01 71 1014.5
20260902200704 66 200 1.7 5.2 0.00 0.01 0.01 71 1014.4
20260902195705 67 125 1.7 5.2 0.00 0.01 0.01 72 1014.4
20260902195204 67 173 1.7 5.2 0.00 0.01 0.01 72 1014.6
20260902194704 67 189 1.7 5.2 0.00 0.01 0.01 72 1014.6
20260902193704 67 176 1.7 5.2 0.00 0.01 0.01 73 1014.7